OBJECT E, 63295

Orbit data source: Space-Track

You're viewing an Uncataloged Satellite

Recently launched and/or uncataloged satellites may have evolving metadata. Metadata may include but not limited to: Owner, Maufacturer, Bus, Motor, and Mission.

OBJECT E, 63295 is a Chinese satellite in SSO that was launched on Mon, 17 Mar 2025 UTC via a GUSHENXING 1 launch vehicle from the Jiuquan Satellite Launch Center, China (JSC). Unknown objects in Earth's orbit typically refer to objects detected orbiting the Earth but have not yet been identified or cataloged. These objects could be anything from previously untracked satellites, spent rocket stages, debris from satellite collisions, or even natural meteoroids temporarily captured by Earth's gravity.

Loading next visibility...
Identifier
63295, 2025-055E
Orbit
SSO
Country
Flag of CNCN / PRC
Related business
None
Manufacturer
Unknown
Mission
Operational Commercial Meteo Radio Occ.
Bus & Motor
Unknown
Mass
Unknown
Launch date (UTC)
2025-03-17 (1 year ago)
Launch vehicle
GUSHENXING 1
Launch site
Jiuquan Satellite Launch Center, China (JSC)
Object type
Unknown
Shape & HBR
Box + 1 Pan, 0.6 m
Radar Cross Section
5.339 m², Medium (>0.1 m² and < 1m²)

Expand to show TLE details & history
Last TLE update: 8 hours ago

TLE from 8 hours ago
0 OBJECT E
1 63295U 25055E   26171.52467465  .00007495  00000-0  38422-3 0  9995
2 63295  97.6515 311.2586 0014875 122.8072 237.4595 15.16766272 69512
Epoch: 2026-06-20T12:35Z
TLE epoch observation values (Epoch: 2026-06-20T12:35:31.889Z)
Latitude
-0.0001°
Longitude
-146.36231°
Altitude
524.228 km
Speed
7.598 km/s
True Right ascension
20h 45m 02s
True Declination
0° 00' 00"
Sunlit
Object was in full shadow at epoch
Visualization orbit readout
Latitude
Unknown
Longitude
Unknown
Altitude
Unknown
Speed
Unknown
Apparent Right ascension
Unknown
Apparent Declination
Unknown
Sunlit
N/A
Visualization observer readout
Local Sidereal Time
07:19:53
Azimuth
Unknown
Elevation
Unknown
Doppler factor
Unknown
Orbital elements
Apogee altitude
522.852 km
Perigee altitude
502.352 km
Semi-major axis
6,890.739 km
Eccentricity
0.00149
Inclination
97.6515°
RAAN
311.2586°
Arg. of periapsis
122.8072°
True anomaly
237.31595°
Mean anomaly
237.4595°
Eccentric anomaly
237.38771°
Mean motion
3.79441 °/min
Orbital period
94.88 mins
BSTAR
0.00038422
Loading maneuver chart data...
Computing Atmospheric mass density...
Loading historical data...
Loading historical data...
Loading historical data...
Loading historical data...
Loading historical data...
Loading historical data...
Loading historical data...

Documentation

Showing up to 5 results
|